Date,TemperatureHighF,TemperatureAvgF,TemperatureLowF,DewpointHighF,DewpointAvgF,DewpointLowF,HumidityHigh,HumidityAvg,HumidityLow,PressureMaxIn,PressureMinIn,WindSpeedMaxMPH,WindSpeedAvgMPH,GustSpeedMaxMPH,PrecipitationSumIn
2013-1-1,47.8,44.9,41.3,47.5,41.7,30.6,99,89,59,29.85,29.68,5,1,5,0.34
2013-1-2,51.6,45.5,41.3,47.3,41.8,36.9,99,88,62,29.92,29.65,10,2,10,0.17
2013-1-3,44.9,38.9,26.5,38.3,35.2,26.3,99,87,71,30.02,29.86,6,2,6,0.00
2013-1-4,58.9,36.5,22.8,32.9,24.7,18.6,99,69,23,30.08,29.95,11,1,11,0.00
2013-1-5,55.7,36.1,22.2,35.2,27.5,21.6,99,74,31,30.14,29.96,4,1,4,0.00
2013-1-6,59.3,44.3,37.5,41.9,36.6,30.7,96,76,45,29.98,29.78,11,2,11,0.02
2013-1-7,60.9,38.0,26.7,34.7,29.9,26.5,99,77,30,30.17,29.94,12,1,12,0.00
2013-1-8,62.4,38.4,25.5,40.7,32.3,25.2,99,82,43,30.19,30.09,4,1,4,0.00
2013-1-9,63.4,53.0,45.3,51.9,48.5,44.7,99,86,62,29.98,29.90,3,0,3,0.00
2013-1-10,68.3,52.1,42.4,52.3,42.3,37.4,99,74,35,30.06,29.93,9,2,9,0.00
2013-1-11,51.7,45.5,42.4,46.1,44.3,42.1,99,96,75,29.93,29.72,6,2,6,0.01
2013-1-12,71.4,54.5,44.5,62.9,52.6,44.3,99,94,74,29.73,29.63,4,0,4,0.00
2013-1-13,74.2,58.8,46.2,61.9,54.7,45.9,99,87,61,29.69,29.59,10,1,10,0.00
2013-1-14,62.5,59.4,57.7,62.3,58.8,56.2,99,98,90,29.68,29.60,9,1,9,0.38
2013-1-15,60.0,45.2,40.9,59.8,44.9,40.7,99,99,95,29.76,29.61,14,4,14,0.08
2013-1-16,50.5,44.8,40.2,49.8,44.5,40.0,99,99,96,29.62,29.51,8,2,8,0.18
2013-1-17,49.8,43.5,31.4,49.5,43.1,31.0,99,99,97,29.73,29.40,19,5,19,1.43
2013-1-18,53.7,36.0,27.3,32.2,29.0,23.5,99,79,38,30.06,29.73,9,1,9,0.22
2013-1-19,57.9,37.0,23.1,34.7,29.2,22.9,99,78,33,30.04,29.70,7,2,7,0.00
2013-1-20,131.5,42.6,28.7,39.2,32.7,28.3,99,76,25,29.70,29.55,12,1,12,0.01
2013-1-21,66.3,42.4,26.4,36.6,28.3,16.5,99,64,22,29.64,29.44,15,2,15,0.00
2013-1-22,44.0,34.7,28.0,19.8,2.8,-12.1,48,27,10,29.81,29.53,15,4,15,0.00
2013-1-23,47.2,32.1,19.2,24.3,12.9,-0.1,74,46,26,29.89,29.58,11,3,11,0.00
2013-1-24,42.4,31.3,22.6,28.1,14.0,-0.3,97,54,20,30.03,29.51,19,5,19,0.00
2013-1-25,24.2,22.3,18.6,22.2,12.8,4.9,92,67,48,30.06,29.67,8,2,8,0.00
2013-1-28,48.3,21.0,0.0,46.6,41.6,41.0,96,42,87,29.92,29.90,4,0,4,0.07
2013-1-29,73.9,47.2,0.0,58.1,49.1,36.4,99,68,55,29.91,0.00,9,2,9,0.07
2013-1-30,72.3,64.2,52.8,64.5,60.2,50.4,99,88,66,29.70,29.08,27,9,27,0.90
2013-1-31,53.9,43.5,29.4,50.4,29.5,19.1,94,61,29,29.73,29.16,21,5,21,0.02
2013-2-1,42.2,34.8,23.1,29.6,13.6,-0.8,81,45,18,30.07,29.59,19,5,19,0.00
2013-2-2,47.1,33.3,19.0,35.0,19.6,11.0,86,59,31,30.09,29.73,17,3,17,0.00
2013-2-3,57.3,41.5,32.1,35.9,28.8,21.9,96,64,32,29.73,29.55,14,3,14,0.00
2013-2-4,52.8,37.8,24.7,30.9,26.3,21.3,96,66,37,29.93,29.71,9,2,9,0.00
2013-2-5,67.6,46.2,34.3,37.7,33.5,28.8,94,65,28,29.83,29.73,8,2,8,0.00
2013-2-6,68.3,43.7,28.3,38.3,29.1,13.1,99,67,13,30.09,29.82,10,2,10,0.00
2013-2-7,43.3,39.1,34.5,39.6,34.7,26.1,99,84,63,30.14,29.63,12,5,12,0.51
2013-2-8,64.2,42.5,36.1,48.3,38.9,35.6,99,89,53,29.63,29.46,11,4,11,0.13
2013-2-9,59.5,39.9,26.7,29.7,23.0,11.0,95,60,15,30.41,30.16,8,2,8,0.00
2013-2-10,57.7,41.2,25.8,43.7,27.7,19.6,93,65,23,30.52,30.26,7,2,7,0.06
2013-2-11,59.3,50.2,43.1,58.2,49.6,42.8,99,98,93,30.24,30.03,7,1,7,0.07
2013-2-12,63.8,50.1,42.4,49.5,36.5,23.5,99,66,23,30.17,29.98,8,2,8,0.01
2013-2-13,46.2,44.1,39.7,45.9,42.6,34.0,99,95,78,30.00,29.73,6,2,6,0.09
2013-2-14,55.3,41.7,29.1,38.0,33.5,28.8,99,76,44,30.13,29.88,8,2,8,0.00
2013-2-15,66.7,44.0,27.8,41.1,33.9,27.6,99,74,28,29.99,29.82,15,2,15,0.00
2013-2-16,42.7,35.6,29.2,34.5,29.8,15.7,97,81,51,29.88,29.73,8,2,8,0.07
2013-2-17,44.9,31.6,23.8,19.4,11.8,4.4,80,46,19,30.16,29.86,24,2,24,0.00
2013-2-18,56.2,35.3,18.1,31.8,20.9,15.8,92,62,25,30.28,30.14,11,3,11,0.00
2013-2-19,46.5,40.2,31.6,44.2,37.8,25.5,99,91,61,29.88,29.54,9,2,9,0.13
2013-2-20,58.6,40.6,26.0,32.1,20.4,4.1,99,50,11,29.79,29.66,9,2,9,0.00
2013-2-21,64.5,40.9,22.6,33.6,20.6,3.7,89,53,10,29.92,29.76,8,2,8,0.00
2013-2-22,41.5,35.8,34.3,36.0,34.3,29.3,99,94,62,29.98,29.77,8,3,8,0.22
2013-2-23,41.8,38.1,34.3,41.6,37.7,34.0,99,99,96,29.80,29.50,7,2,7,0.14
2013-2-24,69.7,49.1,34.6,44.9,37.4,22.8,99,72,19,29.69,29.48,13,2,13,0.00
2013-2-25,41.7,37.3,30.9,32.8,26.9,23.9,97,67,50,29.87,29.69,12,4,12,0.00
2013-2-26,45.3,38.6,32.1,45.0,37.2,24.9,99,95,64,29.77,29.24,10,3,10,0.64
2013-2-27,60.6,46.7,35.5,43.2,39.3,35.0,99,78,45,29.46,29.31,8,2,8,0.01
2013-2-28,52.3,40.0,31.2,39.4,29.6,23.4,99,70,37,29.54,29.37,21,3,21,0.00
2013-3-1,48.5,38.0,27.8,33.3,28.8,25.0,97,71,46,29.98,29.52,13,2,13,0.00
2013-3-2,50.1,38.0,30.0,36.3,28.4,19.7,92,70,45,30.00,29.88,14,2,14,0.00
2013-3-3,49.9,36.1,28.3,20.5,17.5,13.8,65,48,28,30.06,29.93,15,5,15,0.00
2013-3-4,59.7,37.4,21.5,29.2,17.6,2.8,91,52,10,30.19,30.05,13,2,13,0.00
2013-3-5,48.9,41.0,33.7,44.2,37.0,28.4,99,86,69,30.12,29.64,12,2,12,0.15
2013-3-6,51.0,40.7,33.0,41.9,27.5,21.9,99,61,38,30.15,29.64,27,8,27,0.00
2013-3-7,57.3,41.7,31.9,29.7,26.5,23.1,77,57,33,30.33,30.14,15,6,15,0.00
2013-3-8,58.6,41.2,26.4,29.2,23.2,18.0,87,53,21,30.37,29.91,17,4,17,0.00
2013-3-9,70.3,43.8,0.0,39.2,30.8,25.2,97,62,22,30.06,29.95,9,2,9,0.00
2013-3-10,71.5,50.3,0.0,41.6,34.3,29.1,97,61,24,30.01,29.81,6,2,7,0.00
2013-3-11,69.9,55.3,40.6,54.3,42.1,18.8,92,63,31,29.85,29.50,17,5,17,0.02
2013-3-12,74.4,59.3,45.1,60.1,49.8,30.4,99,75,27,29.60,29.37,14,5,14,0.46
2013-3-13,60.0,46.0,31.8,42.7,27.5,17.5,99,53,24,29.78,29.60,19,5,19,0.00
2013-3-14,59.1,40.7,27.4,30.1,18.5,11.4,66,43,17,29.90,29.76,17,4,17,0.00
2013-3-15,65.2,45.9,27.6,41.9,31.3,18.1,90,60,31,29.82,29.52,10,3,10,0.00
2013-3-16,80.2,58.2,43.8,49.8,45.1,39.5,91,66,32,29.53,29.32,11,3,11,0.00
2013-3-19,67.9,54.8,46.0,23.5,18.1,12.5,31,24,13,30.04,29.92,14,4,14,0.21
2013-3-20,61.1,46.8,41.1,25.2,13.7,7.6,36,26,17,30.13,29.91,9,4,9,0.00
2013-3-21,49.2,38.7,29.6,31.9,12.8,7.7,67,36,20,29.99,29.77,18,6,18,0.00
2013-3-22,57.7,37.6,22.2,30.9,18.1,10.9,85,49,17,30.09,29.97,11,3,11,0.00
2013-3-23,62.4,44.3,34.3,36.9,31.8,24.5,89,64,30,30.07,29.91,7,1,7,0.00
2013-3-24,41.7,40.1,38.2,39.4,37.6,35.3,97,91,85,29.94,29.72,14,2,14,0.18
2013-3-25,48.1,42.4,35.5,28.8,24.4,21.8,68,50,36,30.12,29.92,14,6,14,0.33
2013-3-26,49.4,39.7,32.1,27.4,25.2,23.5,74,57,40,30.42,30.14,14,4,14,0.00
2013-3-27,53.4,43.5,30.5,25.6,22.1,18.2,77,44,28,30.52,30.42,19,6,19,0.00
2013-3-28,59.7,42.0,26.2,30.0,23.3,16.0,92,53,20,30.57,30.45,17,3,17,0.00
2013-3-29,66.7,40.1,26.4,34.9,28.7,19.0,99,71,16,30.61,30.44,9,1,9,0.00
2013-3-30,71.2,52.5,35.9,45.0,38.5,31.4,97,64,29,30.50,30.35,8,2,8,0.00
2013-3-31,69.6,55.5,47.6,59.4,51.7,42.9,99,88,62,30.35,30.07,11,2,11,0.32
2013-4-1,76.2,59.8,49.4,54.9,45.1,34.8,99,65,28,30.22,30.11,15,3,15,0.05
2013-4-2,68.5,51.5,34.8,38.7,31.6,14.5,97,53,13,30.44,30.22,14,2,14,0.00
2013-4-3,65.4,50.5,39.1,37.8,23.7,13.2,73,39,16,30.56,30.40,13,3,13,0.00
2013-4-4,46.9,40.5,0.0,38.1,31.3,17.2,99,73,34,30.59,29.57,14,5,14,0.50
2013-4-5,69.0,49.2,35.2,47.6,39.4,32.2,99,74,30,30.02,29.53,12,4,12,0.00
2013-4-6,75.0,53.1,34.6,44.6,36.7,27.9,99,62,19,30.24,30.02,11,2,11,0.00
2013-4-7,73.9,57.3,40.2,50.8,43.9,35.2,92,63,36,30.26,30.08,12,3,12,0.00
2013-4-8,80.0,63.1,48.9,58.6,53.3,47.2,99,73,43,30.17,30.03,10,3,10,0.00
2013-4-9,87.9,69.1,51.4,62.0,57.0,51.1,99,69,37,30.19,30.06,9,2,9,0.00
2013-4-10,89.2,71.4,55.9,64.8,59.6,54.9,99,69,37,30.10,29.93,8,2,8,0.00
2013-4-11,82.7,71.6,57.7,66.1,62.4,56.3,98,74,52,29.98,29.77,13,4,13,0.00
2013-4-12,86.8,72.0,60.6,68.2,59.0,37.5,99,68,29,29.81,29.61,15,5,15,0.17
2013-4-13,82.2,62.5,45.3,51.3,42.8,33.9,92,54,19,30.01,29.81,11,2,11,0.00
2013-4-14,83.1,62.8,42.6,53.6,46.1,33.8,99,62,19,30.08,30.00,10,2,10,0.00
2013-4-15,74.1,62.7,57.1,59.2,57.3,52.2,99,83,57,30.19,29.97,8,2,8,0.04
2013-4-16,85.4,67.5,54.4,64.9,59.8,54.2,99,79,45,30.29,30.17,8,1,8,0.00
2013-4-17,91.5,70.5,55.7,65.7,60.0,55.0,99,75,32,30.22,30.09,9,2,9,0.08
2013-4-18,83.1,71.1,62.7,66.0,62.1,58.5,97,75,48,30.17,30.00,11,4,11,0.00
2013-4-19,78.0,67.7,57.7,69.8,64.2,53.5,99,89,72,30.02,29.74,14,5,14,0.26
2013-4-20,71.0,54.7,43.8,54.4,37.1,28.1,96,55,22,30.41,30.02,14,3,14,0.01
2013-4-21,67.4,52.2,39.3,43.4,39.0,33.6,99,64,35,30.61,30.41,14,3,14,0.00
2013-4-23,77.1,63.2,52.8,56.9,51.6,44.9,95,68,47,29.94,29.76,8,2,8,0.00
2013-4-24,78.6,64.0,51.4,61.1,56.1,50.6,99,78,50,29.80,29.64,14,2,14,0.01
2013-4-25,80.2,60.5,46.5,58.4,42.4,24.4,93,57,14,29.95,29.68,13,3,13,0.00
2013-4-26,78.6,58.6,40.0,49.8,40.2,29.1,97,59,18,30.10,29.95,9,1,9,0.00
2013-4-27,68.3,59.7,54.8,54.9,49.9,43.2,95,71,50,30.02,29.91,4,1,4,0.00
2013-4-28,58.0,55.4,53.4,56.7,54.1,51.7,99,96,86,29.92,29.70,7,2,7,0.65
2013-4-29,78.9,62.2,55.3,64.2,58.9,55.1,99,90,53,29.72,29.61,4,1,4,0.12
2013-4-30,68.3,61.3,53.7,60.5,58.1,53.1,99,90,72,29.84,29.65,8,2,8,0.00
2013-5-1,64.5,58.4,51.7,58.6,55.7,51.5,99,91,77,29.96,29.82,13,3,13,0.00
2013-5-2,63.1,57.9,54.1,57.9,55.7,53.0,99,92,82,29.99,29.90,9,3,9,0.01
2013-5-3,70.8,61.3,49.6,55.6,51.4,43.6,99,71,51,29.95,29.84,12,4,12,0.00
2013-5-4,69.6,55.4,48.3,52.5,48.0,43.8,91,77,49,29.88,29.74,14,5,14,0.00
2013-5-5,56.8,53.7,51.0,56.5,50.6,46.0,99,89,80,29.76,29.61,16,5,16,0.12
2013-5-6,80.2,62.6,55.5,63.3,57.5,53.3,99,85,41,29.64,29.50,11,3,11,0.14
2013-5-7,79.3,60.8,50.7,56.6,52.6,47.4,98,78,38,29.65,29.55,13,1,13,0.00
2013-5-8,77.7,62.5,53.2,62.9,57.3,52.6,99,84,58,29.70,29.62,5,1,5,0.01
2013-5-9,89.4,67.2,50.8,61.4,56.5,50.6,99,74,31,29.78,29.69,7,1,7,0.00
2013-5-10,88.3,70.2,54.3,67.4,61.6,54.0,99,77,43,29.77,29.65,8,1,8,0.00
2013-5-11,83.1,72.2,63.8,67.9,62.9,59.0,91,74,49,29.67,29.51,10,2,10,0.00
2013-5-12,77.8,64.6,50.5,60.9,48.8,31.5,97,61,20,29.75,29.54,12,2,12,0.00
2013-5-13,76.2,55.8,40.8,48.6,37.1,26.4,97,56,19,29.89,29.74,14,2,14,0.00
2013-5-14,80.7,58.5,39.5,49.2,42.9,35.8,98,61,24,29.96,29.77,7,2,7,0.00
2013-5-15,95.1,71.2,52.1,67.7,58.2,46.3,93,66,35,29.77,29.63,4,1,5,0.02
2013-5-16,92.1,74.6,57.9,66.8,61.3,54.5,99,68,30,29.73,29.63,8,1,8,0.01
2013-5-17,95.1,73.8,58.9,68.9,64.3,58.7,99,76,36,29.80,29.70,5,1,5,0.00
2013-5-18,78.9,68.3,62.4,68.6,64.0,61.2,99,87,56,29.88,29.78,4,1,4,0.06
2013-5-19,76.6,68.4,63.8,72.6,66.9,63.0,99,95,81,29.85,29.76,5,1,5,0.15
2013-5-20,89.2,73.3,66.9,71.1,67.7,64.9,99,85,48,29.83,29.72,7,1,7,0.00
2013-5-21,92.1,75.5,67.9,75.8,70.4,65.7,99,85,56,29.77,29.66,5,2,5,0.00
2013-5-22,91.0,75.7,64.5,73.0,68.3,62.2,99,80,53,29.74,29.61,10,2,10,0.20
2013-5-23,87.0,70.4,62.7,72.1,66.2,61.2,99,87,58,29.68,29.54,11,1,11,0.21
2013-5-24,76.6,65.3,53.4,63.1,50.3,35.3,99,64,24,29.90,29.57,18,3,18,0.00
2013-5-25,85.4,61.8,45.6,54.4,43.0,34.2,90,55,20,30.01,29.83,11,2,11,0.00
2013-5-26,83.6,64.2,53.4,56.8,48.6,41.6,95,60,28,29.99,29.86,8,1,8,0.00
2013-5-27,89.0,68.7,50.8,61.9,56.4,50.6,99,70,35,29.97,29.85,6,1,6,0.00
2013-5-28,91.2,74.8,63.3,69.8,65.1,60.6,98,74,46,29.95,29.85,8,3,8,0.00
2013-5-29,92.6,75.4,61.5,68.3,64.5,60.1,96,72,41,29.96,29.87,7,2,8,0.00
2013-5-30,93.5,75.3,62.2,69.4,65.2,61.5,99,74,40,30.00,29.89,6,2,6,0.00
2013-5-31,95.3,77.2,65.2,71.6,67.7,63.7,99,76,42,29.95,29.82,5,2,5,0.00
2013-6-1,94.6,78.4,68.3,71.6,67.9,64.5,97,73,42,29.85,29.73,7,2,7,0.00
2013-6-2,91.0,76.8,68.3,71.8,68.5,65.4,99,77,50,29.77,29.62,11,2,11,0.30
2013-6-3,91.0,73.3,66.7,72.7,68.9,65.7,99,88,52,29.68,29.54,8,2,8,0.66
2013-6-4,87.0,72.9,65.2,69.3,66.9,65.0,99,83,53,29.80,29.66,11,2,11,0.00
2013-6-5,80.4,68.5,65.6,70.0,65.4,63.6,96,90,68,29.84,29.75,4,1,4,0.08
2013-6-6,71.5,69.9,67.9,71.3,69.6,67.7,99,99,98,29.95,29.91,7,2,7,0.95
2013-6-7,82.7,70.2,67.4,73.6,69.0,67.1,99,96,74,29.95,29.73,10,2,10,0.37
2013-6-8,68.5,67.1,64.0,68.2,66.9,63.7,99,99,99,30.04,29.93,8,1,8,0.06
2013-6-9,92.1,76.2,65.6,74.3,70.5,65.3,99,84,52,29.99,29.89,8,1,8,0.00
2013-6-10,88.1,74.4,70.1,77.8,72.2,69.5,99,93,66,29.93,29.74,18,3,18,0.56
2013-6-11,94.4,76.6,67.0,71.0,67.7,63.1,99,78,41,29.82,29.75,12,2,12,0.00
2013-6-12,97.8,81.3,63.6,80.5,72.9,63.3,99,78,49,29.83,29.71,6,1,6,0.00
2013-6-13,97.1,78.7,67.6,79.7,71.9,63.0,99,83,41,29.72,29.49,32,1,32,0.07
2013-6-14,87.9,71.7,59.5,67.3,60.4,54.7,99,72,36,29.86,29.61,14,2,14,0.01
2013-6-15,93.0,73.2,58.9,66.8,62.9,58.7,99,74,35,29.97,29.86,7,1,7,0.00
2013-6-16,69.4,68.1,66.7,65.3,64.0,62.8,91,87,81,29.93,29.91,6,2,6,0.00
2013-6-17,90.6,75.0,71.2,74.3,70.7,68.0,98,88,55,29.87,29.77,4,2,4,0.02
2013-6-18,88.5,74.4,67.6,75.7,70.9,67.3,99,90,59,29.81,29.60,10,2,10,0.72
2013-6-19,89.5,74.3,64.3,69.8,67.3,64.0,99,81,48,29.95,29.73,5,1,5,0.00
2013-6-20,90.8,73.4,63.4,69.9,66.2,63.0,99,81,44,30.07,29.95,8,1,8,0.00
2013-6-21,90.3,72.9,60.2,66.9,62.6,58.2,99,74,38,30.10,30.02,7,2,7,0.00
2013-6-22,91.0,73.3,61.1,72.5,67.3,59.1,98,83,51,30.07,29.95,8,2,8,0.00
2013-6-23,92.4,77.1,67.2,74.7,70.9,66.8,99,83,52,30.04,29.95,7,1,7,0.01
2013-6-24,91.3,76.5,69.7,77.5,72.4,69.2,99,88,61,30.05,29.93,8,1,8,0.13
2013-6-25,94.8,77.8,69.4,77.6,72.5,69.1,99,85,52,29.96,29.83,9,2,9,0.06
2013-6-26,97.3,76.4,67.8,77.8,71.5,65.5,99,87,50,29.87,29.73,18,2,18,0.24
2013-6-27,94.9,78.1,67.9,78.3,73.0,67.5,99,86,55,29.80,29.56,12,2,12,0.24
2013-6-28,96.4,78.0,69.6,78.6,73.1,69.3,99,87,53,29.60,29.44,14,1,14,0.59
2013-6-29,91.3,77.5,68.3,76.3,72.0,68.0,99,84,57,29.55,29.45,6,1,6,0.00
2013-6-30,88.3,75.3,68.1,76.2,72.3,67.9,99,91,64,30.38,29.53,14,2,14,0.83
2013-7-1,85.0,75.0,68.1,75.1,71.0,67.9,99,88,67,29.83,29.67,7,2,7,0.06
2013-7-2,75.9,72.5,71.7,74.1,71.6,70.7,99,97,92,29.97,29.82,6,2,6,0.13
2013-7-3,86.1,75.7,71.5,77.4,73.8,70.9,99,94,70,30.03,29.94,7,2,7,0.26
2013-7-4,90.3,78.7,73.0,76.7,73.8,71.3,99,86,59,30.07,29.98,9,3,9,0.08
2013-7-5,93.0,78.0,73.0,77.4,74.0,72.2,99,89,58,30.07,29.98,6,2,6,0.07
2013-7-6,94.4,77.5,68.3,77.2,73.0,68.0,99,88,51,30.07,29.93,6,1,6,0.17
2013-7-7,90.4,77.6,70.8,79.0,74.3,70.6,99,90,63,30.00,29.89,7,2,7,0.69
2013-7-8,93.5,78.8,71.2,78.3,73.8,70.9,99,86,57,30.00,29.92,5,1,5,0.13
2013-7-9,94.8,79.7,71.9,80.0,75.0,71.6,99,87,60,29.98,29.86,5,2,5,0.00
2013-7-10,96.9,79.5,70.6,79.1,74.1,70.4,99,85,53,29.92,29.75,8,2,8,0.13
2013-7-11,84.1,75.5,71.9,78.1,74.5,71.6,99,97,80,29.79,29.69,4,1,4,0.73
2013-7-12,83.2,74.3,69.2,72.9,70.3,67.6,99,88,65,29.84,29.69,8,2,8,0.00
2013-7-13,86.1,73.8,67.4,75.8,71.1,66.8,99,91,68,29.94,29.82,7,2,10,0.12
2013-7-14,91.9,77.2,70.3,77.2,73.1,70.0,99,88,58,30.10,29.94,11,3,11,0.19
2013-7-15,97.5,79.1,68.3,75.4,72.0,68.0,99,82,45,30.14,30.06,5,1,5,0.00
2013-7-16,101.4,81.1,68.3,78.2,73.3,68.0,99,80,43,30.12,30.00,5,1,5,0.00
2013-7-17,96.0,79.5,71.7,80.3,74.6,70.4,99,86,56,30.05,29.94,7,1,7,0.00
2013-7-18,101.4,81.3,70.1,81.0,74.8,69.8,99,83,47,29.98,29.85,6,1,6,0.00
2013-7-19,96.6,81.8,72.8,80.9,76.0,72.4,99,84,58,29.93,29.80,5,1,5,0.01
2013-7-20,94.8,79.9,73.7,79.5,75.2,72.7,99,86,57,29.85,29.75,7,2,7,0.00
2013-7-21,97.5,79.0,72.3,79.6,74.3,71.9,99,87,52,29.82,29.72,9,2,9,0.19
2013-7-22,94.4,78.7,71.2,79.2,73.7,70.6,99,86,58,29.79,29.65,8,1,8,0.00
2013-7-23,97.5,80.7,71.5,74.5,72.4,67.4,99,78,42,29.67,29.56,10,2,10,0.00
2013-7-24,100.2,80.4,68.7,76.4,71.4,67.3,99,78,39,29.71,29.56,11,2,11,0.63
2013-7-25,88.5,74.3,66.5,72.0,68.8,65.8,99,85,53,29.85,29.64,8,2,8,0.07
2013-7-26,91.9,75.8,65.2,72.2,68.5,65.0,99,81,48,29.93,29.83,5,1,5,0.00
2013-7-27,80.7,71.9,67.6,73.7,70.2,66.7,99,94,78,29.94,29.76,11,2,11,0.46
2013-7-28,94.9,77.4,68.7,75.7,71.3,68.4,99,84,49,29.99,29.89,8,1,8,0.40
2013-7-29,96.6,75.8,66.7,71.3,68.2,64.5,99,81,37,30.13,29.97,5,1,5,0.01
2013-7-30,92.1,75.1,62.5,72.7,67.1,61.8,99,79,44,30.20,30.11,6,0,6,0.00
2013-7-31,85.8,74.9,69.4,73.9,71.1,68.9,99,89,61,30.13,29.96,6,1,6,0.43
2013-8-1,94.9,77.6,70.5,77.4,72.9,70.2,99,87,52,29.97,29.85,8,1,8,0.01
2013-8-2,95.1,78.6,68.5,74.7,70.8,65.9,99,80,43,30.00,29.90,5,1,5,0.00
2013-8-3,95.1,79.6,69.9,78.3,73.7,69.5,99,84,50,30.00,29.90,9,1,9,0.00
2013-8-4,96.0,78.0,67.8,72.5,67.9,60.6,99,76,34,29.98,29.88,11,2,11,0.00
2013-8-5,88.3,74.2,64.0,71.3,67.5,63.7,99,82,53,30.02,29.82,7,1,7,0.00
2013-8-6,79.6,72.1,66.0,73.0,68.7,65.6,99,89,76,29.91,29.82,6,2,7,0.12
2013-8-7,92.4,77.6,69.7,74.6,71.0,67.8,99,82,49,29.93,29.85,5,1,5,0.00
2013-8-8,90.4,77.1,70.8,78.7,73.9,70.4,99,91,63,29.92,29.83,4,1,4,0.11
2013-8-9,96.7,78.4,72.6,80.3,74.8,70.3,99,90,57,29.95,29.84,8,1,8,1.23
2013-8-10,96.9,76.9,70.6,81.6,74.1,70.0,99,92,53,29.99,29.93,11,1,11,0.32
2013-8-11,97.8,79.7,69.4,80.0,74.3,24.4,99,86,10,30.01,29.91,5,1,5,0.11
2013-8-12,98.4,80.7,71.4,78.1,74.0,70.9,99,83,43,29.95,29.84,5,1,5,0.04
2013-8-13,94.2,78.2,71.0,78.8,73.2,70.5,99,86,53,29.85,29.69,11,1,11,0.02
2013-8-14,84.3,72.8,62.2,72.5,64.1,57.7,99,76,46,29.98,29.74,7,2,7,0.00
2013-8-15,79.8,66.7,59.1,61.0,59.1,54.9,99,79,46,30.06,29.96,8,2,8,0.00
2013-8-16,70.3,61.9,0.0,63.0,59.5,55.9,99,91,72,30.06,29.92,4,1,4,0.00
2013-8-17,66.0,62.7,59.5,65.5,62.3,59.0,99,98,89,29.96,29.90,6,1,6,0.45
2013-8-18,86.7,71.7,64.3,72.2,67.6,63.9,99,88,58,30.01,29.86,5,1,5,0.05
2013-8-19,80.2,69.9,65.4,72.1,68.2,65.2,99,95,71,29.92,29.83,4,0,4,0.18
2013-8-20,86.8,72.9,63.4,73.8,69.0,63.2,99,89,62,29.92,29.83,5,0,5,0.00
2013-8-21,88.3,75.8,69.4,78.5,73.1,68.9,99,92,67,29.95,29.84,5,0,5,0.08
2013-8-22,96.6,76.2,67.9,76.5,71.4,67.3,99,88,43,29.92,29.78,10,1,10,0.24
2013-8-23,91.9,74.1,65.6,75.8,70.0,65.3,99,88,52,30.03,29.75,8,1,8,0.01
2013-8-24,88.6,71.5,61.8,66.0,62.6,58.7,99,77,40,30.25,30.03,9,2,9,0.00
2013-8-25,86.1,69.0,58.6,65.6,61.4,58.1,99,80,43,30.34,30.22,6,1,6,0.00
2013-8-26,91.2,67.9,54.6,65.8,60.9,54.4,99,82,37,30.28,29.90,5,1,5,0.00
2013-8-27,95.7,75.8,62.4,76.3,69.0,62.1,99,82,46,29.92,29.76,7,1,7,0.00
2013-8-28,91.7,79.2,69.6,78.4,74.1,69.1,99,86,63,29.95,29.74,4,0,4,0.00
2013-8-29,95.1,80.3,72.3,76.9,73.2,70.1,99,81,50,30.00,29.88,8,1,8,0.00
2013-8-30,98.0,76.8,67.8,70.7,68.6,61.7,99,80,33,30.06,29.93,7,1,7,0.00
2013-8-31,95.7,76.4,66.7,78.1,71.3,66.4,99,86,53,29.96,29.87,6,1,6,0.00
2013-9-1,96.9,76.6,68.5,79.6,72.0,68.2,99,87,52,29.91,29.78,11,1,11,0.20
2013-9-2,96.6,77.8,68.3,76.4,72.1,68.0,99,85,47,29.91,29.81,6,1,6,0.00
2013-9-3,95.8,78.2,69.2,74.7,71.2,66.9,99,82,41,29.96,29.80,7,0,7,0.00
2013-9-4,94.6,73.4,61.8,70.3,66.1,61.6,99,82,39,30.09,29.96,5,1,6,0.00
2013-9-5,95.5,74.1,62.7,68.6,63.6,52.8,99,77,27,30.11,30.04,8,1,8,0.00
2013-9-6,91.0,71.7,61.6,65.0,61.3,55.1,99,74,35,30.19,30.08,9,2,9,0.00
2013-9-7,92.1,70.8,58.0,68.3,63.6,57.7,99,81,39,30.13,29.98,7,1,7,0.00
2013-9-8,66.3,64.3,62.9,66.1,64.0,62.6,99,99,99,29.98,29.94,0,0,0,0.00
2013-9-9,93.9,76.7,65.2,72.4,68.5,65.0,99,80,43,30.14,29.99,4,1,4,0.00
2013-9-10,98.4,78.5,67.4,73.6,70.4,67.1,99,81,40,30.23,30.13,3,1,3,0.00
2013-9-11,94.8,81.7,67.0,73.2,71.2,66.8,99,74,46,30.21,29.91,4,1,4,0.00
2013-9-12,96.2,76.2,67.4,78.2,70.8,67.1,99,85,45,29.91,29.67,12,0,12,0.07
2013-9-13,87.9,72.0,62.7,69.7,62.3,53.4,99,75,34,30.04,29.61,9,1,9,0.00
2013-9-14,68.5,59.7,55.0,54.9,52.0,49.9,87,76,57,30.20,30.04,10,2,10,0.00
2013-9-15,89.7,70.8,52.8,66.3,62.9,52.5,99,80,39,30.34,30.22,4,1,4,0.00
2013-9-16,91.7,74.3,63.6,69.8,65.5,59.9,99,77,36,30.26,29.92,8,2,8,0.00
2013-9-17,81.8,67.7,57.1,61.3,55.8,51.2,89,68,36,30.17,30.04,11,3,11,0.00
2013-9-18,83.4,63.7,51.4,59.0,53.7,48.7,99,73,37,30.17,30.01,8,2,8,0.00
2013-9-19,82.5,66.1,54.4,65.4,59.1,53.6,98,80,46,30.05,29.93,4,1,4,0.00
2013-9-20,90.3,73.0,63.3,70.4,66.4,62.1,99,82,46,29.93,29.78,5,1,5,0.17
2013-9-21,79.8,69.7,63.1,71.6,67.8,62.8,99,94,73,29.82,29.57,6,1,6,0.39
2013-9-22,84.0,66.8,57.3,62.8,58.8,52.6,99,80,37,29.77,29.58,11,2,11,0.18
2013-9-23,83.2,63.2,52.8,59.5,55.3,51.3,99,79,37,29.93,29.77,7,1,7,0.00
2013-9-24,86.7,65.1,53.9,61.2,57.6,53.6,99,81,37,29.95,29.79,4,1,6,0.00
2013-9-25,77.3,63.5,54.6,64.1,59.3,54.4,99,88,55,29.81,29.72,4,1,4,0.02
2013-9-26,80.7,64.3,53.5,61.7,56.8,50.1,99,80,35,30.02,29.74,10,1,10,0.00
2013-9-27,83.1,61.7,8.0,59.6,54.1,7.8,99,80,36,30.15,29.89,62,2,62,0.00
2013-9-28,75.7,59.2,49.6,58.0,52.6,49.3,99,82,45,30.06,29.96,9,2,9,0.00
2013-9-29,77.1,60.4,51.4,57.3,54.2,51.1,99,83,44,29.98,29.79,5,1,9,0.00
2013-9-30,84.5,61.8,49.6,61.4,55.2,49.3,99,83,37,29.92,29.81,5,1,5,0.00
2013-10-1,89.7,66.0,52.1,63.3,57.9,51.8,99,81,33,29.95,29.84,6,1,6,0.00
2013-10-2,92.8,68.5,55.3,65.8,60.2,55.1,99,80,31,29.97,29.86,4,1,4,0.00
2013-10-3,93.7,69.5,58.6,66.6,62.2,58.3,99,82,36,29.94,29.85,4,0,4,0.00
2013-10-4,94.8,65.2,58.8,67.0,62.8,58.5,99,93,38,29.98,29.90,3,0,4,0.00
2013-10-5,95.8,66.8,59.5,70.0,63.9,59.2,99,92,37,30.00,29.90,3,0,3,0.00
2013-10-6,88.5,71.0,61.8,70.0,65.1,61.5,99,84,51,29.92,29.79,6,1,6,0.00
2013-10-7,79.6,77.4,70.1,71.7,70.0,62.8,80,78,75,29.75,29.70,3,2,6,0.51
2013-10-8,58.8,57.5,55.9,48.9,46.4,44.3,71,66,63,29.94,29.92,9,3,9,0.00
2013-10-9,75.0,60.8,49.2,54.5,49.4,44.3,92,67,44,29.95,29.85,11,4,11,0.00
2013-10-10,68.8,60.3,51.2,61.9,55.1,47.2,91,83,72,29.92,29.79,8,2,8,0.00
2013-10-11,76.6,66.9,61.3,64.6,61.0,57.7,96,83,56,29.85,29.77,10,1,10,0.00
2013-10-12,77.7,65.9,56.2,63.4,61.1,56.0,99,86,57,29.95,29.82,7,1,7,0.00
2013-10-13,67.8,62.8,60.7,63.2,61.6,60.0,99,96,85,30.06,29.94,8,2,8,0.04
2013-10-14,69.0,63.0,58.0,61.7,59.5,55.9,99,89,76,30.00,29.92,9,3,9,0.01
2013-10-15,82.7,63.0,52.3,57.2,54.6,49.3,99,78,34,29.96,29.80,8,1,8,0.00
2013-10-16,82.5,67.7,55.2,62.2,59.2,54.6,99,77,44,29.83,29.69,6,1,6,0.00
2013-10-17,71.5,65.2,60.0,65.9,63.0,59.8,99,93,74,29.72,29.59,4,1,4,0.00
2013-10-18,75.9,61.6,52.5,64.1,55.2,49.8,99,82,44,29.80,29.63,7,1,7,0.00
2013-10-19,63.3,58.2,52.5,61.2,57.3,52.0,99,97,91,29.73,29.58,4,0,4,0.00
2013-10-20,76.6,53.3,42.4,52.0,43.3,33.1,99,76,22,29.86,29.67,7,1,7,0.00
2013-10-21,76.2,53.5,39.0,53.4,46.8,38.7,99,82,37,29.91,29.75,5,1,5,0.00
2013-10-22,71.5,59.9,53.5,59.3,56.1,52.4,99,88,62,29.75,29.55,4,1,4,0.00
2013-10-23,69.6,57.4,44.4,58.0,44.1,30.1,99,67,26,29.78,29.47,15,3,15,0.00
2013-10-24,64.2,46.6,33.6,43.1,34.6,29.9,99,66,31,29.92,29.78,11,2,11,0.00
2013-10-25,58.9,44.7,33.6,35.6,31.2,25.4,90,62,29,30.12,29.92,11,2,11,0.00
2013-10-26,64.9,46.4,28.3,38.3,32.6,27.3,99,64,26,30.11,29.81,7,2,7,0.00
2013-10-27,75.5,53.7,0.0,48.7,42.5,37.3,99,70,31,30.00,29.78,6,1,6,0.00
2013-10-28,68.3,53.7,43.8,54.9,49.2,43.6,99,86,54,30.16,29.99,3,0,3,0.00
2013-10-29,80.5,59.2,46.3,58.2,52.5,46.1,99,82,40,30.23,30.12,4,0,4,0.00
2013-10-30,83.2,61.1,49.8,60.1,55.3,49.5,99,84,40,30.18,30.03,5,1,5,0.00
2013-10-31,71.2,63.0,54.1,63.2,57.6,53.6,99,84,64,30.07,29.78,11,2,11,0.00
2013-11-1,68.3,67.2,65.4,64.4,63.2,61.4,96,87,81,29.79,29.64,12,5,12,0.00
2013-11-2,65.1,51.8,44.4,50.3,46.2,40.8,93,82,48,30.10,29.92,9,0,9,0.00
2013-11-3,67.8,47.9,37.2,43.7,37.7,30.4,99,74,25,30.48,30.10,11,2,11,0.00
2013-11-4,65.1,45.7,34.3,37.8,33.5,28.3,97,67,27,30.65,30.47,8,2,8,0.00
2013-11-5,58.0,46.4,33.2,48.4,38.0,29.3,94,74,50,30.68,30.54,10,2,10,0.00
2013-11-6,79.6,56.7,42.4,54.7,49.5,42.1,99,81,38,30.55,30.24,8,1,8,0.00
2013-11-7,69.6,54.9,43.6,60.0,47.5,32.1,99,78,50,30.26,30.08,12,2,12,0.00
2013-11-8,55.3,39.7,31.6,38.1,30.5,24.8,97,72,32,30.43,29.92,9,1,9,0.00
2013-11-9,64.9,50.3,33.0,39.0,33.7,25.6,99,57,25,29.94,29.73,8,1,8,0.00
2013-11-10,76.6,51.8,34.3,43.2,33.9,24.1,99,61,16,29.78,29.63,13,2,13,0.00
2013-11-11,69.0,45.8,0.0,35.4,29.3,21.0,96,58,17,29.92,29.72,8,1,8,0.00
2013-11-12,65.4,41.2,30.0,41.7,32.9,17.8,99,77,35,30.02,29.63,19,3,19,0.00
2013-11-13,51.4,34.2,23.5,25.7,18.8,8.9,96,58,19,30.12,30.01,11,2,11,0.00
2013-11-14,62.7,37.5,0.0,35.2,25.4,15.8,99,72,17,30.04,29.86,7,2,7,0.00
2013-11-16,62.7,56.2,0.0,56.6,53.4,24.7,99,87,77,29.92,0.00,4,0,4,0.00
2013-11-17,71.4,59.7,51.0,62.5,57.6,50.8,99,93,67,29.89,29.56,7,1,7,0.00
2013-11-18,79.8,64.0,50.3,65.3,49.5,29.2,99,66,27,29.68,29.49,14,2,14,0.00
2013-11-19,60.9,47.3,37.9,34.4,26.9,20.5,77,47,22,29.96,29.67,13,3,13,0.00
2013-11-20,58.0,43.1,32.8,33.2,29.7,25.8,79,61,34,30.13,29.95,11,3,11,0.00
2013-11-21,67.8,50.1,41.3,46.9,39.3,31.2,79,67,43,30.17,30.05,8,2,8,0.00
2013-11-22,73.5,57.2,0.0,58.6,50.5,42.1,98,78,57,30.07,29.79,6,1,6,0.00
2013-11-23,60.6,53.5,40.4,58.7,39.9,15.5,99,65,25,29.91,29.74,14,3,14,0.00
2013-11-24,41.5,32.4,22.6,19.4,7.1,-12.1,71,38,10,30.22,29.91,17,5,17,0.00
2013-11-25,49.4,31.8,18.6,21.9,11.1,-2.2,77,46,13,30.25,30.04,5,2,5,0.00
2013-11-26,37.7,34.5,31.8,36.2,25.9,11.2,99,75,34,30.05,29.68,9,2,9,0.00
2013-11-27,41.7,34.4,0.0,36.4,23.2,13.3,91,63,50,30.49,0.00,19,6,19,0.00
2013-11-28,52.1,31.3,19.7,24.6,16.3,4.9,91,59,16,30.77,30.49,8,2,8,0.00
2013-11-29,57.7,35.3,21.9,30.7,23.6,18.5,99,70,23,30.91,30.76,11,2,11,0.00
2013-11-30,53.4,33.7,24.6,27.6,22.8,19.6,92,68,27,30.94,30.67,9,2,9,0.00
2013-12-1,63.6,38.2,24.6,38.2,29.8,23.9,99,77,28,30.68,30.33,4,1,5,0.00
2013-12-2,64.7,42.1,28.3,41.1,35.6,28.1,99,81,37,30.33,30.13,5,1,5,0.00
2013-12-3,61.8,47.2,33.6,50.6,43.1,33.3,99,87,66,30.27,30.17,4,1,4,0.00
2013-12-4,61.1,54.9,50.1,58.4,53.8,46.5,99,96,86,30.38,30.26,6,1,6,0.00
2013-12-5,63.1,59.4,55.5,62.8,59.1,55.3,99,99,99,30.43,30.32,8,2,8,0.00
2013-12-6,76.4,65.4,60.4,63.6,60.9,58.4,99,86,61,30.37,30.27,11,4,11,0.00
2013-12-7,65.1,51.2,43.5,63.4,46.8,35.6,99,85,69,30.73,30.28,14,5,14,0.00
2013-12-8,43.3,35.7,32.3,35.9,32.0,28.4,99,87,66,30.74,30.58,12,4,12,0.00
2013-12-9,43.8,38.2,0.0,43.6,38.2,32.4,99,98,99,30.58,29.88,5,1,5,0.00
2013-12-10,54.4,42.3,27.4,45.9,38.6,24.5,99,88,52,30.15,29.74,13,2,13,0.00
2013-12-11,51.9,34.1,23.1,35.3,27.1,22.7,99,80,35,30.27,30.11,6,1,6,0.00
2013-12-12,28.5,27.0,25.6,28.0,26.7,25.4,99,99,98,30.12,30.10,3,0,3,0.00
2013-12-13,53.5,34.5,21.3,31.1,25.0,20.0,98,73,32,30.20,30.08,6,1,6,0.00
2013-12-14,46.5,40.4,35.4,42.7,36.9,29.3,99,88,61,30.10,29.61,9,3,9,0.00
2013-12-15,56.4,41.6,30.1,43.4,33.9,26.0,99,77,39,29.92,29.57,16,2,16,0.00
2013-12-16,60.4,41.5,26.7,37.3,32.3,26.0,99,73,33,30.00,29.90,7,2,7,0.00
2013-12-17,63.3,44.8,29.4,40.1,34.0,28.8,99,70,34,29.95,29.71,15,2,15,0.00
2013-12-18,55.9,38.5,26.4,29.1,21.2,0.6,88,57,12,30.11,29.88,8,2,8,0.00
2013-12-19,63.6,41.9,24.9,33.7,26.8,21.5,96,61,21,30.14,30.03,8,2,8,0.00
2013-12-20,75.3,47.9,35.7,50.1,39.9,31.4,93,75,47,30.07,29.95,53,2,53,0.00
2013-12-21,70.5,56.4,42.0,63.2,52.5,41.8,99,88,65,29.98,29.84,12,2,12,0.00
2013-12-22,68.1,64.2,59.3,65.7,62.7,59.0,99,95,88,29.91,29.81,12,5,12,0.17
2013-12-23,62.5,56.3,43.5,62.3,53.9,34.3,99,92,69,30.01,29.82,14,4,14,0.00
2013-12-24,49.6,38.9,27.3,34.5,23.8,11.9,73,55,32,30.29,29.98,17,5,17,0.00
2013-12-25,45.8,28.6,18.8,19.7,12.0,2.8,85,54,18,30.37,30.21,7,2,7,0.00
2013-12-26,56.2,33.3,23.3,25.1,21.5,16.8,87,66,22,30.22,30.09,7,2,7,0.00
2013-12-28,41.7,34.4,0.0,35.9,32.2,18.6,96,76,69,29.94,0.00,3,1,3,0.00
2013-12-29,60.7,44.8,37.9,48.5,42.0,34.7,99,91,62,29.65,29.31,4,2,4,0.00
2013-12-30,53.5,41.7,32.3,45.1,38.7,32.1,99,90,64,29.66,29.48,4,1,4,0.00
2013-12-31,52.5,40.1,28.5,38.5,29.4,18.5,97,70,27,29.90,29.66,7,2,7,0.00
2014-1-1,54.6,40.7,27.8,34.8,29.9,23.9,99,69,33,29.94,29.68,6,2,6,0.00
2014-1-2,46.0,39.9,33.6,44.3,37.5,29.7,99,91,75,29.68,29.18,17,1,17,0.00